Starlink 30375

operational
NORAD ID: 57732 Int'l Des: 2023-131 Owner: SPXS Country: US Constellation: starlink
LEOCIRCULAR

About Starlink 30375

Description loading...

Live Position

Loading 3D Globe...

Upcoming Passes

Altitude History

Altitude vs Time

uPlot chart will show altitude changes over time

Two-Line Element Set

1 57732U 23131A 25354.00098367 .00000322 00000-0 38916-4 0 9994
2 57732 43.0036 232.3049 0001276 261.3849 98.6849 15.02534025128095
Epoch: Dec 20, 2025 • Age: 23 hours

Current Status

Altitude 562.5 km
Velocity 7.58 km/s
Sub-Earth Point -18.18°S, 11.41°W
Launch Date Sep 1, 2023
Age 2.3 years
Type internet

Technical Details

Classification Payload
Mass 730.00 kg
Dry Mass 700.00 kg
Total Mass 730.00 kg
Length 0.30 m
Diameter 4.10 m
Span 29.00 m
Shape Box + pan
Manufacturer SPXS
Bus Type Starlink V2M
Phase Status In Orbit
Owner/State SPXS/US

Large Constellations

Loading constellations...